TimeCST,TemperatureF,Dew PointF,Humidity,Sea Level PressureIn,VisibilityMPH,Wind Direction,Wind SpeedMPH,Gust SpeedMPH,PrecipitationIn,Events,Conditions,WindDirDegrees,DateUTC
12:15 AM,51.1,44.2,77,30.28,10.0,NW,5.8,-,N/A,,Overcast,320,2013-01-06 06:15:00
12:35 AM,51.1,44.1,77,30.28,10.0,NNW,8.1,-,N/A,,Overcast,330,2013-01-06 06:35:00
12:55 AM,50.9,43.9,77,30.28,10.0,NNW,8.1,-,N/A,,Overcast,330,2013-01-06 06:55:00
1:15 AM,51.1,44.1,77,30.28,10.0,NW,8.1,-,N/A,,Overcast,320,2013-01-06 07:15:00
1:35 AM,51.1,44.2,77,30.28,10.0,NNW,8.1,-,N/A,,Overcast,330,2013-01-06 07:35:00
1:55 AM,51.1,44.1,77,30.27,10.0,NNW,8.1,-,N/A,,Overcast,330,2013-01-06 07:55:00
2:15 AM,51.3,44.1,76,30.26,10.0,NNW,9.2,-,N/A,,Overcast,330,2013-01-06 08:15:00
2:35 AM,51.4,44.1,76,30.26,10.0,NW,8.1,-,N/A,,Overcast,320,2013-01-06 08:35:00
2:55 AM,51.4,44.2,76,30.26,10.0,NNW,9.2,-,N/A,,Overcast,340,2013-01-06 08:55:00
3:15 AM,51.6,44.1,75,30.26,10.0,NNW,9.2,-,N/A,,Overcast,330,2013-01-06 09:15:00
3:35 AM,51.8,44.1,75,30.26,10.0,NW,10.4,-,N/A,,Overcast,320,2013-01-06 09:35:00
3:55 AM,51.8,44.1,75,30.26,10.0,NNW,9.2,-,N/A,,Overcast,330,2013-01-06 09:55:00
4:15 AM,51.8,43.9,74,30.26,10.0,NW,10.4,-,N/A,,Overcast,320,2013-01-06 10:15:00
4:35 AM,51.8,43.9,74,30.26,10.0,NNW,10.4,-,N/A,,Overcast,330,2013-01-06 10:35:00
4:55 AM,51.8,44.1,75,30.26,10.0,NNW,9.2,-,N/A,,Overcast,330,2013-01-06 10:55:00
5:35 AM,51.8,44.6,76,30.26,10.0,NNW,8.1,-,N/A,,Overcast,330,2013-01-06 11:35:00
5:55 AM,51.8,43.9,74,30.25,10.0,NNW,10.4,-,N/A,,Overcast,340,2013-01-06 11:55:00
6:15 AM,52.0,43.9,74,30.28,10.0,NW,6.9,-,N/A,,Overcast,320,2013-01-06 12:15:00
6:35 AM,51.8,44.2,75,30.29,10.0,NNW,4.6,-,N/A,,Overcast,330,2013-01-06 12:35:00
6:55 AM,51.8,44.4,76,30.30,10.0,NW,5.8,-,N/A,,Overcast,320,2013-01-06 12:55:00
7:15 AM,51.8,44.6,76,30.31,10.0,NNW,3.5,-,N/A,,Overcast,330,2013-01-06 13:15:00
7:35 AM,52.0,44.6,76,30.31,10.0,North,5.8,-,N/A,,Overcast,350,2013-01-06 13:35:00
7:55 AM,52.2,43.5,72,30.32,10.0,NNW,10.4,-,N/A,,Overcast,340,2013-01-06 13:55:00
8:35 AM,52.3,43.3,71,30.33,10.0,North,9.2,-,N/A,,Overcast,350,2013-01-06 14:35:00
8:55 AM,53.1,43.3,70,30.34,10.0,NNW,9.2,-,N/A,,Overcast,340,2013-01-06 14:55:00
9:15 AM,53.8,43.2,67,30.35,10.0,NNW,11.5,-,N/A,,Overcast,330,2013-01-06 15:15:00
9:35 AM,54.0,43.0,66,30.37,10.0,NNW,13.8,17.3,N/A,,Overcast,340,2013-01-06 15:35:00
9:55 AM,55.8,43.5,63,30.37,10.0,NW,10.4,-,N/A,,Mostly Cloudy,320,2013-01-06 15:55:00
10:15 AM,57.7,43.9,60,30.37,10.0,NNW,9.2,-,N/A,,Scattered Clouds,330,2013-01-06 16:15:00
10:35 AM,58.8,43.2,56,30.37,10.0,NNW,10.4,-,N/A,,Scattered Clouds,340,2013-01-06 16:35:00
10:55 AM,58.3,43.0,57,30.36,10.0,NNW,9.2,-,N/A,,Clear,340,2013-01-06 16:55:00
11:35 AM,60.8,43.5,53,30.34,10.0,NW,13.8,-,N/A,,Scattered Clouds,310,2013-01-06 17:35:00
12:15 PM,62.8,43.9,50,30.31,10.0,NNW,12.7,-,N/A,,Scattered Clouds,340,2013-01-06 18:15:00
12:35 PM,62.8,43.7,50,30.29,10.0,NNW,13.8,-,N/A,,Scattered Clouds,330,2013-01-06 18:35:00
12:55 PM,61.7,41.5,48,30.29,10.0,North,8.1,19.6,N/A,,Clear,10,2013-01-06 18:55:00
1:15 PM,62.8,40.5,44,30.27,10.0,North,11.5,18.4,N/A,,Mostly Cloudy,360,2013-01-06 19:15:00
1:35 PM,62.1,39.2,43,30.26,10.0,North,12.7,20.7,N/A,,Overcast,10,2013-01-06 19:35:00
1:55 PM,63.3,38.5,40,30.26,10.0,North,8.1,17.3,N/A,,Overcast,360,2013-01-06 19:55:00
2:15 PM,64.4,39.6,40,30.26,10.0,NNE,11.5,-,N/A,,Overcast,30,2013-01-06 20:15:00
2:35 PM,64.8,38.8,38,30.26,10.0,North,11.5,16.1,N/A,,Overcast,10,2013-01-06 20:35:00
2:55 PM,65.8,37.4,35,30.25,10.0,NNE,13.8,19.6,N/A,,Overcast,20,2013-01-06 20:55:00
3:15 PM,65.8,36.5,34,30.25,10.0,North,6.9,-,N/A,,Mostly Cloudy,350,2013-01-06 21:15:00
3:35 PM,65.8,36.7,34,30.25,10.0,NNE,11.5,-,N/A,,Scattered Clouds,30,2013-01-06 21:35:00
3:55 PM,65.5,36.5,34,30.26,10.0,NNE,9.2,-,N/A,,Clear,20,2013-01-06 21:55:00
4:15 PM,65.5,36.1,34,30.25,10.0,NNE,6.9,-,N/A,,Clear,20,2013-01-06 22:15:00
4:35 PM,65.3,35.8,34,30.25,10.0,NNE,10.4,-,N/A,,Clear,20,2013-01-06 22:35:00
4:55 PM,64.4,35.6,34,30.26,10.0,NE,5.8,-,N/A,,Clear,40,2013-01-06 22:55:00
5:15 PM,63.7,36.9,37,30.26,10.0,NE,8.1,-,N/A,,Scattered Clouds,50,2013-01-06 23:15:00
5:35 PM,61.7,40.8,46,30.26,10.0,ENE,9.2,-,N/A,,Mostly Cloudy,60,2013-01-06 23:35:00
5:55 PM,59.5,40.8,50,30.26,10.0,ENE,6.9,-,N/A,,Mostly Cloudy,60,2013-01-06 23:55:00
6:15 PM,58.1,40.5,52,30.27,10.0,ENE,5.8,-,N/A,,Mostly Cloudy,60,2013-01-07 00:15:00
6:35 PM,56.3,41.0,57,30.27,10.0,ENE,4.6,-,N/A,,Scattered Clouds,70,2013-01-07 00:35:00
6:55 PM,55.0,40.8,59,30.29,10.0,ENE,3.5,-,N/A,,Mostly Cloudy,70,2013-01-07 00:55:00
7:15 PM,55.0,41.0,59,30.29,10.0,East,3.5,-,N/A,,Overcast,90,2013-01-07 01:15:00
7:35 PM,54.5,41.5,62,30.30,10.0,Calm,Calm,-,N/A,,Overcast,0,2013-01-07 01:35:00
7:55 PM,53.6,41.9,65,30.30,10.0,Calm,Calm,-,N/A,,Mostly Cloudy,0,2013-01-07 01:55:00
8:15 PM,53.2,41.9,65,30.30,10.0,Calm,Calm,-,N/A,,Scattered Clouds,0,2013-01-07 02:15:00
8:35 PM,52.7,42.1,67,30.30,10.0,Calm,Calm,-,N/A,,Clear,0,2013-01-07 02:35:00
8:55 PM,51.6,42.1,70,30.30,10.0,Calm,Calm,-,N/A,,Clear,0,2013-01-07 02:55:00
9:15 PM,51.1,42.1,71,30.30,10.0,Calm,Calm,-,N/A,,Clear,0,2013-01-07 03:15:00
9:35 PM,49.1,41.9,76,30.31,10.0,Calm,Calm,-,N/A,,Clear,0,2013-01-07 03:35:00
10:15 PM,46.8,41.4,81,30.31,10.0,Calm,Calm,-,N/A,,Clear,0,2013-01-07 04:15:00
10:35 PM,46.2,42.1,85,30.32,10.0,Calm,Calm,-,N/A,,Clear,0,2013-01-07 04:35:00
10:55 PM,46.2,42.1,85,30.31,10.0,Calm,Calm,-,N/A,,Clear,0,2013-01-07 04:55:00
11:35 PM,46.6,42.4,85,30.31,10.0,Calm,Calm,-,N/A,,Mostly Cloudy,0,2013-01-07 05:35:00
11:55 PM,46.6,42.6,86,30.31,10.0,Calm,Calm,-,N/A,,Overcast,0,2013-01-07 05:55:00